GFSGBSN_250_rhum_240.txt.gz
RH
100 100 99 100 90 100 100 97 89 100 99 99 100 100 100 100 100 100 76 56 88 100 100 100 55 55 68 78 90 90 71 54 55 97 86 57 30 36 56 99 100 100 95 88 93 73 66
100 100 100 98 100 100 100 100 100 90 100 100 100 100 100 100 100 100 91 84 61 81 100 100 100 97 98 85 74 47 44 45 42 55 65 59 78 65 66 92 87 85 80 67 64 78 84
100 100 100 100 100 97 100 100 100 100 100 87 85 100 100 100 100 100 100 100 100 99 99 100 100 100 100 85 83 75 74 88 80 72 79 86 78 70 72 79 88 78 64 55 93 94 86
100 100 100 100 100 100 91 100 100 100 94 100 100 89 99 84 90 98 100 100 82 97 78 66 92 59 55 60 54 76 77 85 97 98 87 69 54 54 77 71 92 78 81 61 86 77 99
100 100 100 100 100 100 98 100 100 100 100 100 100 100 95 100 82 72 100 100 98 70 98 100 97 75 76 91 100 100 100 100 83 86 85 64 92 98 94 95 74 85 61 47 54 100 86
41 100 100 100 100 100 100 100 100 100 100 100 100 100 99 94 98 96 85 99 100 100 99 82 85 99 100 95 100 96 80 94 81 67 80 100 89 97 99 89 74 61 49 47 50 54 40
9 30 100 100 100 100 100 100 100 100 100 100 100 100 100 87 88 96 100 100 100 93 98 76 58 77 96 70 59 71 70 74 96 100 93 98 100 100 100 79 59 52 43 35 36 38 38
11 11 17 71 100 100 100 100 100 100 100 100 100 100 100 100 100 100 98 100 100 100 100 100 97 79 99 100 100 100 90 85 87 82 94 100 100 96 81 61 54 45 37 27 22 24 25
12 12 11 11 14 100 100 100 100 100 100 100 100 100 87 95 100 100 100 100 100 98 100 100 100 100 100 96 89 92 82 75 89 95 98 100 86 67 62 53 45 51 48 23 19 23 28
12 13 15 14 12 22 100 100 100 100 100 100 100 100 84 88 98 82 97 100 100 100 98 100 86 91 95 94 95 100 100 96 94 95 93 80 63 55 49 51 56 43 37 28 20 26 26
14 15 17 15 15 11 17 100 100 100 100 100 100 100 100 87 91 99 96 100 100 100 92 97 100 100 100 100 100 93 100 100 98 87 73 61 52 43 34 66 40 30 27 17 15 12 11
15 18 19 18 18 16 13 83 100 100 100 100 100 100 98 96 98 100 100 100 100 100 98 100 100 100 100 100 100 100 100 97 84 68 50 46 33 37 34 20 16 14 13 12 12 9 7
22 26 30 38 21 19 19 97 100 100 100 100 100 100 100 99 99 99 100 100 100 100 100 100 100 100 96 90 94 95 84 76 65 51 42 30 19 17 14 14 12 12 10 8 6 6 7
24 29 48 42 37 24 48 100 100 100 100 100 100 100 100 100 97 100 90 99 100 100 100 100 100 94 95 90 84 72 65 49 40 32 23 18 16 12 11 10 10 8 6 7 8 8 9
30 41 54 52 33 51 94 100 100 100 100 100 100 100 100 100 100 98 100 100 100 100 100 97 93 93 90 74 64 52 42 32 24 17 18 12 10 7 7 7 7 8 9 9 8 6 6
46 43 30 31 32 100 100 100 100 100 100 100 100 99 100 96 98 100 100 100 100 100 100 100 90 77 69 52 40 38 30 18 19 17 16 10 9 7 7 8 8 8 7 6 6 6 7
37 34 37 41 94 100 100 100 100 100 100 100 100 100 100 100 100 100 100 100 100 100 87 77 61 47 41 31 22 23 24 22 17 15 8 8 8 8 7 7 6 6 6 6 6 6 5
71 56 92 100 100 100 100 100 100 100 100 100 100 100 100 100 100 100 100 95 99 80 58 46 42 29 26 24 25 29 29 16 9 8 10 8 7 6 6 6 6 6 6 5 5 5 6
100 100 100 100 100 100 100 100 100 100 100 100 97 100 99 100 100 100 91 83 70 44 42 31 36 40 36 32 28 30 16 9 10 10 9 8 6 6 6 6 6 5 5 5 6 6 7
66 56 100 100 100 100 100 100 100 100 100 93 80 88 100 100 97 91 71 37 33 48 33 34 26 32 32 37 28 12 10 11 11 10 8 7 6 7 6 5 5 5 6 6 7 8 9
93 100 100 100 100 100 100 89 85 80 96 100 100 100 100 100 63 41 48 71 50 38 48 45 32 36 36 20 16 16 13 12 11 9 8 8 7 6 5 5 5 5 6 6 7 10 12
100 100 100 100 100 100 100 100 100 95 96 100 100 97 62 48 68 92 77 67 45 52 50 30 34 38 23 22 21 15 14 14 11 11 12 9 6 5 5 5 5 5 6 7 9 13 16
100 100 100 100 100 100 100 98 85 100 100 93 100 89 100 78 88 78 53 40 57 46 37 36 36 23 26 24 18 16 16 15 13 14 12 8 6 5 5 6 7 7 8 9 11 13 14
100 100 100 100 100 96 97 100 99 98 98 87 95 100 100 76 62 62 58 61 37 42 40 37 29 28 25 21 20 19 17 17 16 18 14 9 7 6 6 7 9 12 13 14 13 13 14
100 100 100 92 95 100 100 84 100 100 100 100 100 100 86 86 74 63 47 34 32 41 49 34 32 27 22 24 24 20 22 19 17 22 19 12 8 8 7 8 11 14 15 14 14 14 12
100 100 99 100 100 100 100 100 100 100 100 94 100 90 95 79 56 46 32 32 47 53 36 34 28 25 28 28 26 26 25 22 20 22 27 19 14 10 10 9 12 15 15 13 13 14 14
100 81 62 100 100 100 100 100 100 98 67 79 78 91 90 58 47 34 36 49 58 39 35 31 26 29 31 29 29 31 31 28 24 25 30 31 24 18 13 12 10 12 14 14 13 15 14
100 100 100 100 100 100 100 100 99 84 93 100 100 83 63 36 34 36 52 59 40 38 35 29 30 34 31 33 34 36 36 37 36 32 30 34 34 30 23 18 15 13 12 14 15 14 15
100 100 100 100 100 100 100 100 99 99 100 98 77 57 46 37 38 50 59 42 39 39 31 30 33 35 33 36 37 40 41 40 42 41 41 37 37 41 38 32 26 20 15 12 10 14 17

GFSGBSN_250_rhum_243.txt.gz
RH
100 100 85 73 90 95 100 100 90 81 100 100 98 100 100 100 100 100 100 100 97 91 73 75 72 73 77 100 100 100 100 95 90 94 98 90 82 55 53 56 70 90 74 87 100 91 57
100 100 100 83 82 74 100 100 100 99 67 100 100 100 100 96 100 100 96 88 100 100 100 100 86 91 64 71 79 64 81 99 90 61 65 50 42 64 78 80 89 100 100 68 55 66 54
100 100 100 100 100 72 89 100 100 100 70 90 92 97 100 90 85 100 100 100 99 98 100 100 100 100 100 100 100 99 93 81 97 87 76 51 62 71 91 100 100 96 79 58 73 74 78
100 100 100 100 100 100 88 87 100 100 100 95 100 96 89 65 98 100 100 73 95 50 92 86 100 96 90 95 100 100 92 67 61 58 83 84 84 100 93 35 36 56 45 51 92 89 77
100 100 100 100 100 100 100 97 100 100 97 99 100 100 100 89 51 80 100 80 84 87 77 62 97 100 95 87 100 96 95 100 97 100 91 85 81 57 56 65 76 71 62 56 65 86 62
22 99 100 100 100 100 100 100 100 100 98 91 100 100 80 100 95 80 92 64 81 97 90 64 55 74 62 100 97 96 99 100 92 80 75 69 59 50 73 100 97 74 79 86 72 100 98
10 9 60 100 100 100 100 100 100 100 100 100 99 100 100 97 100 100 100 100 82 72 100 43 86 100 96 95 100 90 90 90 100 100 100 100 100 100 92 72 73 88 74 79 100 100 85
11 10 8 26 100 100 100 100 100 100 100 100 100 100 100 91 100 99 100 100 95 74 87 100 82 89 76 100 100 100 100 100 100 94 93 93 82 75 87 92 81 88 93 97 95 90 74
11 11 10 8 13 72 100 100 100 100 100 100 100 100 100 100 100 89 100 100 100 99 97 100 92 98 100 100 100 99 95 100 99 96 94 96 100 85 78 79 92 82 76 87 67 64 60
10 10 11 10 9 8 13 95 100 100 100 100 100 100 100 100 100 100 100 95 89 99 100 98 100 100 100 100 100 100 94 88 94 100 100 100 90 91 84 100 98 97 78 68 64 47 40
10 10 12 11 10 12 11 10 27 72 100 100 100 100 100 100 100 100 100 100 100 100 94 66 100 100 100 100 100 100 100 100 100 93 96 95 100 100 100 92 89 76 68 51 40 30 27
12 11 12 14 13 12 12 10 9 9 38 98 100 100 100 100 100 100 100 100 100 73 67 89 97 100 100 100 100 100 100 100 94 98 100 100 100 100 95 83 62 53 44 30 23 20 18
13 12 13 14 15 16 12 12 12 11 11 18 100 100 100 100 100 100 100 99 88 97 99 97 91 95 100 100 100 100 100 100 100 100 100 100 100 96 74 53 44 31 22 17 16 12 9
14 15 16 18 16 17 15 15 13 11 12 24 30 100 100 100 100 100 99 88 92 100 100 100 100 96 96 100 100 100 100 100 100 100 100 81 77 63 50 29 18 17 15 13 10 9 8
17 18 20 22 19 17 16 17 14 14 15 28 90 100 100 100 100 100 99 100 100 99 99 100 100 100 100 100 100 100 99 100 100 100 89 64 42 28 22 16 12 9 9 8 8 7 8
20 20 22 26 21 22 23 20 18 17 21 63 100 100 100 100 100 100 100 100 100 99 100 100 96 97 97 100 100 100 100 99 88 54 28 24 19 17 14 9 7 8 7 8 8 9 8
22 26 26 25 24 30 28 23 25 24 96 100 100 100 100 100 100 100 100 100 100 100 100 100 100 100 100 100 100 96 78 52 32 27 20 12 10 9 8 8 7 7 8 7 8 8 7
25 26 32 31 32 29 31 45 41 93 100 100 100 100 100 97 100 86 100 100 100 96 100 100 100 100 100 96 83 63 46 28 23 17 12 9 8 7 7 7 7 7 7 8 7 6 5
28 36 40 33 32 35 62 56 97 100 100 100 100 100 100 100 100 100 96 82 100 100 100 100 100 95 76 43 34 31 24 21 16 12 9 8 8 8 8 7 8 7 6 6 5 4 5
42 43 38 36 41 74 59 90 100 100 100 100 100 100 100 100 96 80 91 100 100 100 100 98 72 58 53 48 35 27 24 24 11 10 10 9 8 7 8 8 7 6 5 5 5 5 5
37 40 43 57 54 56 98 100 100 100 100 100 100 99 99 98 94 100 100 100 100 100 100 86 63 55 58 36 26 30 31 16 11 12 11 9 8 8 11 8 6 5 5 5 5 5 6
48 64 66 57 54 77 100 100 100 100 100 100 100 100 100 100 94 71 100 100 100 82 63 66 49 43 38 31 40 38 18 17 13 13 12 11 10 12 11 7 6 6 6 6 6 6 7
100 100 61 77 100 100 100 100 99 100 100 100 99 98 100 100 100 100 100 98 62 62 83 69 47 34 31 33 40 20 23 18 17 16 14 12 12 15 11 8 6 6 8 9 10 10 11
100 79 88 100 100 100 100 100 100 100 100 100 100 100 100 100 100 100 100 86 95 82 59 37 33 42 49 43 23 27 22 22 22 18 16 14 17 18 12 10 7 7 10 14 15 16 15
100 100 100 100 100 100 100 100 79 98 100 100 100 100 100 100 100 100 96 88 86 67 43 35 40 48 41 28 29 24 26 29 26 23 20 17 20 22 16 13 10 8 11 14 17 16 16
100 100 100 100 100 100 100 100 100 100 100 100 100 100 99 88 91 93 81 86 73 53 33 43 54 40 29 31 26 26 29 32 29 28 26 24 19 27 28 18 16 11 10 12 15 14 16
100 100 100 100 100 100 100 100 100 100 100 100 100 82 87 97 85 99 69 67 52 35 45 58 45 33 33 27 27 30 32 35 35 33 32 30 24 23 29 31 23 18 14 11 10 14 16
100 100 100 100 100 100 100 100 100 100 100 100 90 100 82 94 89 90 82 54 38 37 59 54 37 36 31 28 30 33 34 36 36 38 37 36 34 28 26 31 35 32 28 23 15 10 12
100 100 100 100 100 100 100 100 100 100 100 100 91 89 100 99 100 83 54 35 39 59 62 41 40 33 30 31 32 34 35 39 39 39 38 41 39 40 32 28 32 37 36 31 29 22 17

GFSGBSN_250_rhum_246.txt.gz
RH
100 100 77 81 76 82 100 100 100 100 100 100 100 100 100 100 100 100 100 100 100 100 100 89 98 100 99 98 93 100 92 66 59 56 73 69 84 84 78 57 52 50 51 53 46 64 91
100 100 100 99 100 78 94 91 100 100 100 100 86 100 100 100 100 100 100 100 100 100 100 100 94 88 93 91 100 96 95 96 99 96 100 100 100 100 92 78 78 71 74 56 77 100 94
82 100 100 100 100 100 81 68 100 100 100 100 100 100 99 92 83 98 92 76 84 100 100 100 100 100 100 99 100 100 100 100 100 100 100 96 79 88 85 94 85 85 92 98 100 70 33
100 100 77 100 100 100 100 71 66 71 83 100 100 100 95 99 100 91 89 70 46 66 73 97 100 80 62 93 92 97 100 100 91 98 100 100 100 99 84 89 100 100 89 82 100 99 76
100 100 100 100 100 100 100 99 94 83 59 92 100 100 100 100 80 76 81 98 67 45 58 61 72 64 48 50 99 80 48 89 99 61 70 77 86 95 100 100 100 100 92 90 100 100 72
62 100 100 100 100 97 100 100 100 87 99 59 90 81 100 100 100 99 100 87 77 83 39 56 75 61 46 45 58 90 34 35 59 61 32 37 82 61 60 100 100 100 100 87 74 78 65
11 33 100 100 100 100 100 100 100 100 100 100 88 82 67 100 100 100 100 100 74 69 50 58 51 60 51 57 50 68 92 55 49 77 65 64 67 67 82 84 94 100 100 99 92 100 94
11 12 10 87 100 100 100 100 100 100 100 100 100 93 96 100 80 89 100 100 98 100 89 83 71 63 45 53 50 42 82 70 64 77 93 97 93 97 100 86 62 86 73 74 92 63 69
15 13 11 9 52 100 100 100 100 100 100 100 100 100 100 100 100 100 83 92 92 78 97 78 56 57 97 90 78 71 70 100 98 94 100 100 100 100 99 100 95 91 93 85 82 99 88
18 14 12 10 9 12 13 95 100 100 100 100 100 95 100 100 100 100 100 100 100 100 97 86 93 94 99 85 91 77 89 85 96 100 100 100 100 100 100 99 100 94 81 94 94 100 100
26 18 15 11 11 10 9 10 52 99 100 100 100 100 100 100 100 100 100 100 100 100 97 85 78 78 81 93 94 100 100 100 100 100 100 100 100 100 98 100 97 98 100 100 95 100 100
27 22 18 14 12 11 11 16 13 10 43 42 92 100 100 98 100 100 100 100 100 100 90 87 94 83 93 100 100 100 99 100 100 100 100 100 100 100 100 100 100 100 100 100 91 85 97
31 27 18 16 15 13 13 28 13 15 12 10 11 17 81 100 100 100 100 100 97 83 89 89 88 96 98 98 99 100 100 98 96 100 100 94 85 100 100 100 100 100 100 96 76 72 77
29 26 20 16 14 14 15 17 16 13 13 11 11 10 9 44 39 100 100 100 95 92 94 93 88 90 96 89 92 89 71 68 80 87 100 100 100 100 100 100 88 97 79 48 47 48 31
28 27 18 13 16 15 17 16 16 16 17 14 13 12 11 12 14 13 54 51 78 97 100 95 93 92 90 95 74 72 95 96 93 87 100 100 100 100 96 78 76 48 34 19 12 8 8
28 23 18 15 19 20 17 18 17 21 17 16 15 14 14 14 14 13 18 28 79 100 100 100 96 95 100 100 100 96 83 86 100 100 100 100 100 97 76 49 24 17 12 9 7 7 7
23 21 19 17 19 19 19 19 26 22 18 18 15 17 16 14 17 20 46 87 88 98 100 100 100 100 99 100 79 90 100 100 100 94 90 72 47 25 21 15 14 11 8 7 7 8 7
23 20 20 20 21 19 23 26 27 29 22 20 20 20 16 18 35 90 85 99 100 100 100 100 100 96 69 72 94 100 100 95 89 78 60 35 28 16 11 12 9 9 8 8 7 8 8
20 22 20 21 21 23 30 29 33 29 24 26 25 19 22 42 97 100 100 100 100 100 94 100 100 96 94 100 100 100 100 78 48 32 26 16 14 12 8 9 8 7 7 8 9 8 6
20 22 25 25 25 29 30 35 36 33 32 27 21 22 39 98 100 100 100 100 100 100 100 91 65 100 100 100 100 93 67 54 32 19 18 13 10 10 10 8 7 7 10 9 7 6 5
23 27 26 23 28 30 36 44 45 40 33 27 27 94 100 100 100 100 100 100 100 100 80 88 100 100 100 100 71 56 39 26 24 20 13 10 12 10 9 8 8 12 10 8 6 5 6
28 27 29 32 35 35 43 46 46 44 59 56 100 100 100 100 100 100 100 100 100 96 100 100 100 100 95 68 48 39 35 30 18 13 13 14 13 12 11 10 12 15 9 7 6 6 8
33 32 37 41 38 54 54 65 62 97 90 100 100 100 96 100 100 100 100 100 100 100 100 100 100 91 63 56 40 33 34 20 18 18 18 16 15 16 14 12 16 15 10 8 7 8 10
36 49 55 61 62 63 81 80 80 100 100 100 100 100 100 100 100 100 100 100 100 100 100 100 98 74 60 50 33 39 22 21 22 21 21 19 18 19 18 16 19 18 14 10 9 10 11
63 72 66 62 76 93 99 100 100 100 100 100 100 100 100 100 100 100 100 100 100 100 100 82 46 50 51 43 42 26 24 26 23 25 26 25 24 23 21 18 20 24 18 16 11 10 13
68 83 86 92 89 95 100 100 100 100 100 100 100 100 100 100 100 100 100 100 100 100 78 58 65 53 37 47 35 27 27 24 24 28 29 29 30 26 24 24 19 24 29 22 18 13 13
93 88 90 87 100 100 100 100 100 100 100 100 100 100 100 100 100 100 100 100 87 72 58 70 57 37 51 43 28 30 28 25 27 30 29 32 33 33 32 28 26 23 24 30 26 16 15
87 72 89 100 100 100 100 100 100 100 100 100 100 100 100 100 100 100 100 54 51 78 71 45 38 56 54 33 34 30 29 27 29 34 32 34 37 36 35 35 32 29 25 23 27 30 24
96 100 100 100 100 100 100 100 100 100 100 100 100 100 100 100 100 100 66 90 91 57 44 41 59 56 40 37 35 31 29 30 33 37 37 40 38 40 36 34 33 34 32 27 25 23 29

GFSGBSN_250_rhum_252.txt.gz
RH
98 100 92 99 84 94 95 96 100 99 100 100 100 97 100 90 83 91 99 94 78 98 100 92 96 86 92 100 100 100 100 100 100 100 100 100 100 100 100 100 100 93 100 100 100 95 91
100 100 100 100 100 100 100 83 100 100 94 100 100 100 87 98 99 76 89 92 99 100 80 73 93 100 100 100 100 97 93 100 100 100 100 99 100 94 96 95 91 91 84 78 82 88 82
100 100 100 100 100 100 100 100 95 100 100 100 100 100 100 100 100 87 65 70 79 76 100 94 71 66 60 70 74 87 98 100 100 95 92 86 93 96 93 98 98 72 53 53 51 60 68
100 100 100 77 81 100 100 99 96 99 100 100 100 100 100 100 100 100 100 84 75 67 53 63 77 83 78 78 80 78 98 100 100 100 94 92 84 88 82 69 78 81 87 71 56 43 46
91 96 100 100 95 94 91 100 100 100 100 100 100 100 100 100 100 100 100 99 89 75 85 82 78 70 49 49 44 50 67 75 85 89 86 86 90 83 67 66 77 64 62 61 41 34 43
50 73 92 100 100 78 88 99 87 100 96 100 100 100 100 100 100 100 100 100 100 97 71 73 66 68 61 58 45 66 68 53 56 64 64 68 68 91 71 70 57 44 35 40 48 53 64
26 38 48 72 100 100 100 83 82 82 98 100 100 100 100 100 100 100 93 100 100 100 100 100 94 77 69 77 57 50 50 50 58 58 48 43 47 38 37 40 43 39 36 56 56 93 97
18 22 23 24 51 98 100 100 100 79 80 86 90 85 99 91 91 100 100 96 80 95 98 97 99 99 80 77 73 56 55 55 56 56 61 52 51 54 60 57 55 52 42 58 55 61 86
23 23 22 22 22 37 87 100 100 100 100 99 100 98 87 100 100 97 100 90 95 79 90 100 87 100 94 80 86 72 74 83 82 67 81 87 80 89 90 83 72 78 69 84 89 100 85
27 27 23 24 24 22 17 73 100 100 100 100 100 98 100 98 100 94 95 100 100 100 99 100 94 89 74 61 66 54 74 75 62 85 80 88 100 93 68 64 64 64 76 88 75 76 76
37 26 28 28 28 25 19 15 22 83 100 100 100 100 97 88 77 76 90 94 99 75 77 93 96 81 67 75 68 55 54 42 44 46 52 56 58 62 71 66 67 76 79 70 66 69 79
40 38 32 28 32 26 26 18 20 22 28 63 100 100 100 87 100 100 78 63 83 68 68 66 68 78 88 77 57 67 73 59 57 52 52 47 48 68 71 66 61 64 55 57 52 56 45
44 39 32 39 37 35 27 19 18 32 15 12 24 74 98 95 91 97 100 93 61 49 59 52 64 85 79 75 76 79 76 72 70 58 55 56 62 68 69 83 74 57 42 56 47 43 47
47 42 41 41 35 36 34 23 23 32 18 13 13 12 10 16 22 100 100 100 100 80 81 77 71 91 100 100 100 100 100 100 86 78 86 80 72 71 80 70 57 60 69 80 75 53 36
44 49 48 46 42 38 38 31 23 20 16 16 16 14 12 11 12 12 22 42 89 70 85 82 100 100 98 39 75 97 85 56 30 65 84 77 70 86 82 73 73 71 53 32 20 17 16
45 51 55 47 52 34 42 35 25 22 22 21 16 12 14 13 13 12 13 13 11 12 52 50 21 21 26 13 13 15 14 26 48 74 82 85 98 72 69 56 44 32 21 20 15 11 10
49 52 59 55 55 40 39 35 27 28 26 24 16 15 18 18 16 15 16 14 12 12 12 11 12 17 15 14 28 40 41 73 88 83 96 82 60 52 56 54 32 20 12 11 9 7 8
51 62 60 63 60 46 45 40 28 30 29 23 21 17 20 19 17 16 16 15 13 14 14 17 21 18 16 50 93 97 97 99 95 87 98 69 69 86 57 24 17 15 11 9 9 9 8
53 57 60 62 56 53 45 36 36 47 29 29 24 18 17 17 18 18 17 18 17 19 29 24 19 26 52 98 100 100 100 93 96 98 98 92 85 50 22 15 13 11 10 11 9 9 9
62 50 59 62 67 55 56 39 39 52 32 30 24 18 19 23 21 26 23 23 23 27 21 21 38 71 99 100 99 100 99 99 100 100 97 92 42 26 18 14 12 11 13 10 10 10 9
59 60 72 72 62 45 47 63 54 45 35 25 23 21 20 26 24 25 25 35 29 28 29 76 94 99 100 100 100 100 100 100 100 93 85 41 28 25 18 14 14 14 11 11 12 11 11
56 73 68 67 57 49 75 77 67 39 27 23 33 34 29 26 27 28 31 34 36 79 100 100 100 100 100 100 100 100 100 100 92 69 35 33 28 20 17 20 18 14 10 10 12 12 11
57 64 62 56 53 73 72 70 47 31 28 38 35 31 26 35 36 34 35 46 89 100 100 100 100 100 100 100 100 100 100 90 52 36 32 25 20 18 22 22 18 13 10 12 14 15 14
56 69 60 65 68 74 72 80 38 39 35 34 30 24 28 34 36 34 54 100 100 100 100 100 100 100 100 100 100 99 86 59 37 29 26 21 20 24 24 24 21 16 13 13 14 16 17
59 58 71 81 78 86 74 46 36 32 35 29 28 30 32 36 36 47 99 100 100 100 100 100 100 100 100 100 98 88 63 34 31 27 22 22 25 26 26 29 32 29 20 16 15 15 16
75 68 80 85 86 73 52 32 32 38 32 30 33 35 42 53 97 96 100 100 100 100 100 100 100 100 100 97 81 64 39 30 32 24 24 22 25 27 29 35 38 36 35 26 21 16 14
83 81 85 77 70 42 34 36 35 35 34 38 47 46 84 100 100 100 100 100 100 100 100 100 100 100 100 79 62 49 34 34 31 27 27 23 26 29 30 33 38 39 39 35 28 23 19
65 64 77 58 45 36 36 42 37 38 41 54 66 97 100 100 100 100 100 100 100 100 100 100 100 100 86 67 52 38 32 37 28 27 27 26 28 31 34 35 40 42 42 43 39 35 27
65 50 38 44 37 39 44 39 44 55 66 96 100 100 100 100 100 100 100 100 100 100 100 100 100 96 70 53 39 28 37 36 28 29 31 30 31 33 36 39 39 44 46 46 47 51 48

GFSGBSN_250_rhum_258.txt.gz
RH
64 62 58 86 69 99 92 100 93 100 100 100 100 92 99 98 100 100 100 100 100 100 100 98 89 84 83 88 84 87 87 80 97 98 97 100 97 100 91 100 100 100 94 82 76 63 73
100 82 66 54 89 100 97 100 100 100 100 100 100 100 100 100 100 95 92 83 99 99 100 100 100 100 92 76 76 70 54 62 58 52 56 60 61 56 78 70 66 68 61 64 60 55 58
100 100 99 87 58 79 97 100 100 100 100 100 100 97 100 98 100 100 100 89 88 82 92 100 100 99 86 84 81 79 66 54 56 61 64 60 58 62 62 63 64 77 74 71 68 65 63
100 100 100 100 86 90 74 76 100 100 100 100 100 100 100 99 99 100 97 93 87 91 98 91 92 99 97 91 79 95 100 87 85 89 83 90 99 99 99 86 78 75 77 76 76 88 90
100 100 100 100 100 93 79 75 77 90 100 100 100 100 100 100 87 94 92 97 100 94 94 92 92 88 71 69 68 74 87 86 72 80 100 80 73 74 88 97 90 95 90 100 97 100 99
98 100 100 100 100 100 100 92 75 65 74 86 100 100 100 100 100 100 98 100 100 100 97 82 90 93 94 82 71 79 74 70 59 65 79 83 75 66 74 86 85 80 96 78 79 84 86
55 98 100 100 100 100 100 100 100 82 95 81 72 76 100 100 100 100 100 92 76 81 84 100 96 69 68 61 69 54 58 69 80 68 54 54 46 46 44 45 57 61 64 66 56 60 62
23 79 99 100 100 100 100 100 100 100 97 78 67 63 74 100 100 100 100 100 97 94 94 85 83 74 83 74 76 61 57 54 52 54 47 51 52 41 39 44 53 54 48 52 57 47 35
21 29 60 98 100 100 100 100 100 100 100 100 73 88 93 88 80 92 100 100 100 100 100 99 88 65 68 71 80 80 79 78 84 57 61 62 56 49 61 80 67 57 57 55 46 35 36
24 22 34 69 88 93 100 100 100 100 100 100 100 100 88 90 86 91 67 90 99 100 97 100 100 100 94 100 91 89 83 71 83 100 93 79 68 74 72 68 60 49 42 39 37 42 40
22 24 25 42 55 80 97 100 100 100 100 100 100 100 100 100 82 100 94 71 75 76 74 87 98 91 86 80 77 74 73 69 63 65 67 70 79 60 52 52 50 37 34 31 33 28 22
25 25 24 25 25 41 51 84 100 100 100 100 100 100 100 100 100 100 100 79 63 79 70 59 58 59 49 54 59 59 47 45 58 53 52 54 55 46 52 51 41 35 34 37 34 12 13
23 23 25 24 26 23 28 43 80 92 93 100 100 100 100 100 100 97 96 98 90 72 76 58 42 40 40 41 46 45 40 47 66 81 83 82 79 73 66 60 46 40 53 35 14 9 11
24 24 25 29 25 25 28 35 36 71 78 89 92 99 100 100 100 100 100 98 85 87 72 69 55 59 46 50 53 66 69 81 89 87 88 92 89 58 58 28 13 15 14 13 13 21 29
23 26 30 31 31 29 30 34 34 42 53 50 69 73 77 86 88 90 91 100 94 84 72 58 53 71 56 52 76 78 91 99 96 89 83 77 38 16 16 12 12 14 18 23 26 26 20
25 29 31 32 36 35 34 36 41 39 44 44 46 54 58 53 54 51 51 54 57 75 77 75 70 99 82 88 98 90 67 56 22 39 31 13 14 16 18 22 36 43 27 24 21 14 10
25 34 32 41 44 36 36 42 43 44 44 43 49 43 44 41 33 28 24 19 15 11 11 10 15 33 39 30 19 13 14 15 16 16 17 18 35 40 51 58 52 32 22 19 14 9 8
24 31 47 40 42 44 43 51 51 53 47 48 52 43 40 39 31 29 21 14 12 12 12 12 15 16 15 14 14 16 17 19 23 25 31 76 76 89 70 48 44 34 28 14 9 9 11
27 38 47 47 47 50 41 57 60 61 53 57 59 50 44 38 34 31 22 18 16 15 12 13 14 14 14 15 18 20 26 34 35 61 90 96 92 78 55 69 51 32 16 13 11 12 13
28 42 50 50 56 56 50 54 64 70 57 59 56 55 46 50 44 36 25 19 18 15 13 13 14 18 18 22 24 42 45 38 70 94 100 94 94 62 72 64 32 18 18 16 17 16 14
29 39 48 53 58 56 58 64 69 72 65 57 64 57 60 59 48 30 25 30 22 17 14 15 18 21 25 34 42 34 32 73 100 98 96 98 70 72 67 30 20 22 23 24 24 20 17
31 39 46 55 58 59 56 66 64 71 65 64 62 64 73 61 41 35 33 26 18 16 15 21 24 33 38 43 36 52 99 100 96 96 100 83 78 68 34 22 24 24 28 30 32 30 25
33 39 47 55 65 58 66 82 63 67 73 67 78 83 69 53 51 40 33 20 19 22 24 36 39 48 45 46 73 99 100 96 96 100 82 78 67 36 25 23 25 28 29 32 33 34 34
34 41 50 60 60 59 71 82 71 76 74 82 100 100 58 56 48 43 29 20 24 29 33 45 44 43 56 96 100 100 81 97 100 97 80 64 40 23 24 26 26 31 29 31 33 32 33
35 47 55 60 58 63 71 77 75 84 75 100 99 69 75 64 44 37 32 27 32 39 48 39 42 64 82 100 100 69 100 97 100 93 78 56 26 25 28 28 26 31 30 27 32 32 33
40 55 58 61 58 73 80 80 84 87 100 100 75 71 64 58 43 47 50 35 46 78 76 55 69 92 100 100 68 100 97 100 92 76 39 28 26 30 28 30 28 29 32 29 29 32 34
55 61 63 61 76 72 82 88 84 98 98 85 75 82 66 47 51 55 56 43 50 56 61 67 76 96 97 87 67 100 100 92 71 43 32 26 29 33 28 30 29 30 33 33 29 29 29
61 65 63 75 80 79 84 89 98 100 97 92 94 87 59 52 56 57 49 50 74 59 72 83 96 97 97 58 90 100 94 73 45 34 30 27 34 34 33 34 32 34 33 31 29 32 30
66 70 82 87 84 87 100 100 100 100 98 97 86 65 59 65 67 60 48 55 60 62 96 92 96 100 66 100 100 86 92 66 35 31 27 32 43 39 40 37 37 37 37 35 30 36 34

GFSGBSN_250_rhum_261.txt.gz
RH
100 100 100 100 100 100 100 99 100 100 100 100 100 100 100 96 100 100 100 100 94 84 81 90 90 99 100 95 92 73 59 63 61 64 69 71 80 82 74 72 63 52 50 49 52 57 59
100 100 100 100 100 100 100 100 100 100 100 100 99 100 100 100 90 97 100 100 97 86 91 97 96 100 99 99 91 94 88 74 68 65 64 74 80 78 71 67 60 57 58 63 69 69 70
100 100 100 100 100 100 100 100 100 100 100 100 100 100 100 100 100 91 99 100 94 90 100 100 96 93 91 78 78 70 68 80 88 86 83 84 80 89 88 87 88 89 84 74 79 85 86
99 100 100 100 100 100 93 100 100 100 100 100 100 91 100 100 98 96 97 100 100 100 99 93 91 88 72 77 74 65 65 60 69 71 78 84 81 73 72 71 76 83 79 77 80 79 77
39 95 100 100 100 100 99 95 99 99 100 100 100 100 100 100 100 83 83 90 97 99 100 100 82 77 78 76 79 78 72 75 79 94 95 96 73 90 90 82 89 99 94 94 92 69 69
18 45 94 100 100 100 100 100 79 71 84 100 100 100 100 100 100 100 98 82 89 85 97 94 79 77 66 64 70 82 88 86 71 69 70 75 93 88 84 84 74 75 74 71 63 59 56
22 19 54 90 100 100 100 100 100 97 95 100 100 100 100 100 100 100 100 100 70 76 75 86 85 81 68 68 62 69 71 74 72 64 68 63 61 67 63 54 56 54 52 48 38 36 45
36 23 23 58 87 100 100 100 100 100 100 100 100 100 100 100 100 100 100 99 97 96 82 69 66 67 62 61 65 74 80 67 51 48 49 50 45 43 44 37 34 31 35 33 31 35 32
34 26 22 30 47 92 100 100 100 100 100 100 100 100 90 100 100 100 100 100 100 100 100 100 96 93 85 63 52 43 45 42 43 37 33 46 41 40 45 44 46 58 58 54 51 56 62
28 31 27 23 32 59 99 100 100 100 100 100 100 100 100 100 100 100 100 100 100 100 94 89 98 100 99 88 74 73 73 67 69 68 68 78 80 66 58 66 70 54 53 50 47 43 41
33 29 32 28 27 33 86 100 100 100 100 100 100 100 100 100 100 98 100 100 100 100 100 91 82 82 79 84 82 73 69 74 61 62 62 60 50 51 52 44 36 34 38 38 39 39 35
29 33 30 31 28 28 54 98 100 100 100 100 100 100 100 100 100 93 95 97 98 99 93 89 79 76 74 74 66 61 54 44 42 39 40 38 34 35 38 34 38 45 48 50 49 43 13
32 36 32 32 31 32 39 84 98 100 100 100 100 100 100 100 100 99 83 94 94 100 100 80 66 62 63 51 51 47 43 40 38 36 38 37 43 41 43 46 57 59 62 46 47 27 10
30 37 35 37 32 37 42 44 92 100 100 100 100 100 100 100 100 100 97 97 93 87 95 86 68 60 52 53 53 47 42 50 57 60 59 58 68 65 74 71 40 30 17 14 14 14 16
25 35 41 39 38 38 42 46 66 99 100 100 100 100 100 100 100 100 98 98 85 82 96 87 78 72 54 74 72 62 69 77 88 76 81 82 78 74 72 19 15 15 18 17 23 24 24
22 32 42 39 44 41 42 43 44 80 100 100 100 100 100 100 100 100 95 92 92 90 73 65 67 61 57 72 82 86 84 78 58 41 49 74 68 33 15 17 23 28 27 29 32 29 16
18 30 39 39 48 43 43 45 46 49 80 99 100 100 100 100 96 98 89 93 89 82 64 55 54 44 38 43 33 15 13 15 14 16 17 15 14 18 24 36 47 36 37 40 28 15 13
18 27 32 39 48 47 43 44 44 44 50 67 83 82 85 89 89 86 76 73 59 50 41 44 41 28 21 12 11 11 12 13 13 14 16 19 25 28 55 51 40 44 53 35 18 16 15
18 26 36 42 50 52 44 44 44 47 41 45 63 57 58 63 62 52 52 49 46 49 46 36 26 20 14 13 11 12 12 14 15 18 25 28 43 64 57 44 53 53 32 20 19 19 21
22 27 35 45 47 57 49 46 44 45 40 36 55 56 48 47 48 48 48 44 39 38 32 25 22 19 15 13 12 13 15 15 20 29 30 60 72 63 62 58 52 32 22 22 23 23 23
15 21 40 53 59 58 56 50 51 47 46 42 55 58 54 60 53 51 47 44 41 34 27 24 21 19 16 14 14 16 15 20 28 32 68 79 79 71 60 56 39 21 25 23 25 23 23
17 27 36 42 59 58 59 48 54 48 57 48 59 62 57 61 50 42 46 45 38 30 24 24 25 20 16 16 19 17 25 28 42 68 79 86 87 75 70 44 23 25 26 26 26 24 24
13 20 41 68 69 59 66 53 69 68 60 58 67 70 66 72 66 58 56 45 36 32 29 30 24 20 18 18 20 29 30 57 76 79 78 87 94 71 35 24 22 28 26 27 26 28 28
16 25 49 68 60 63 61 62 79 82 52 72 85 76 68 74 66 61 56 46 42 41 34 27 22 20 21 23 28 32 56 92 81 75 76 85 77 46 27 27 28 28 27 27 29 32 29
11 20 56 60 70 68 62 63 72 85 70 57 90 86 72 75 78 60 60 52 58 43 31 26 25 26 25 28 33 60 73 92 61 76 96 76 42 30 31 31 37 31 30 29 32 33 28
14 29 64 71 74 67 69 70 80 82 71 83 90 78 77 78 76 65 63 54 55 41 32 32 28 26 24 36 64 75 97 60 75 100 76 44 30 29 33 44 42 38 37 34 37 40 33
23 48 67 71 76 71 77 73 77 78 78 86 90 81 86 94 71 62 62 54 46 40 32 34 32 28 35 74 95 87 79 72 91 85 71 31 27 28 49 48 43 42 38 40 45 44 41
31 51 69 75 78 79 76 72 76 75 78 90 96 86 85 77 70 70 67 55 44 38 40 41 47 41 64 100 80 88 76 89 90 84 48 26 25 27 50 56 48 45 44 45 44 42 37
40 50 56 77 86 86 81 69 72 77 88 98 91 100 100 97 85 80 60 55 51 48 46 69 58 71 80 97 100 100 100 83 90 62 29 26 21 24 49 60 59 54 56 50 49 44 40